Location: Aalen
(48.8330°N, 10.1000°E)
Time: 04:28:26
(UTC+02:00)

Transit 2A - Pass Details

Date: 07 August 2021
Orbit: 594 x 964 km, 66.7° (Epoch: 27 September)

Event Time Altitude Azimuth Distance (km) Brightness Sun altitude
Rises 05:31:29 0° 185° (S) 2,835 8.6 -5.1°
Reaches altitude 10° 05:33:51 10° 174° (S) 1,959 7.9 -4.8°
Maximum altitude 05:37:41 30° 113° (ESE) 1,135 7.4 -4.2°
Drops below altitude 10° 05:41:46 10° 52° (NE) 2,101 10.2 -3.7°
Sets 05:44:24 0° 42° (NE) 3,080 10.9 -3.3°
